Location: Unspecified
(0.0000°N, 0.0000°E)
Time: 09:53:42
(UTC+00:00)

Explorer 7 - All Passes

Search period start: 17 April 2026 00:00
Search period end: 27 April 2026 00:00
Orbit: 428 x 537 km, 50.2° (Epoch: 16 April)

Date Brightness Start Highest point End Pass type
(mag) Time Alt. Az. Time Alt. Az. Time Alt. Az.
17 Apr - 00:49:24 10° NNW 00:52:57 52° NE 00:56:23 10° SE night (unlit)
17 Apr - 12:35:12 10° SSW 12:38:56 51° SE 12:42:47 10° NE daylight
18 Apr - 00:22:09 10° NNW 00:25:40 45° NE 00:29:04 10° SE night (unlit)
18 Apr - 12:07:59 10° SSW 12:11:38 44° SE 12:15:24 10° NE daylight
18 Apr - 23:54:55 10° NNW 23:58:23 40° NE 00:01:45 10° ESE night (unlit)
19 Apr - 11:40:47 10° SSW 11:44:20 39° SE 11:48:00 10° ENE daylight
19 Apr - 13:22:05 10° WNW 13:22:34 10° NW 13:23:05 10° NW daylight
19 Apr - 23:27:40 10° NNW 23:31:05 35° NE 23:34:24 10° ESE night (unlit)
20 Apr - 11:13:35 10° SSW 11:17:01 34° SE 11:20:35 10° ENE daylight
20 Apr - 12:53:57 10° WNW 12:55:15 11° NW 12:56:34 10° NNW daylight
20 Apr - 23:00:26 10° NNW 23:03:46 31° NE 23:07:01 10° ESE night (unlit)
21 Apr - 00:41:13 10° WSW 00:41:52 10° SW 00:42:31 10° SW night (unlit)
21 Apr - 10:46:24 10° S 10:49:42 30° SE 10:53:08 10° ENE daylight
21 Apr - 12:26:10 10° WNW 12:27:54 13° NW 12:29:41 10° NNW daylight
21 Apr - 22:33:11 10° N 22:36:27 28° NE 22:39:36 10° ESE night (unlit)
22 Apr - 00:13:07 10° WSW 00:14:32 12° SW 00:15:57 10° SSW night (unlit)
22 Apr - 10:19:13 10° S 10:22:23 26° SE 10:25:39 10° ENE daylight
22 Apr - 11:58:29 10° W 12:00:33 14° NW 12:02:40 10° NNW daylight
22 Apr - 22:05:57 10° N 22:09:06 25° NE 22:12:10 10° ESE night (unlit)
22 Apr - 23:45:19 10° W 23:47:13 14° SW 23:49:05 10° SSW night (unlit)
23 Apr - 09:52:02 10° S 09:55:02 23° SE 09:58:08 10° ENE daylight
23 Apr - 11:30:52 10° W 11:33:12 16° NW 11:35:34 10° NNW daylight
23 Apr - 21:38:44 10° N 21:41:45 22° NE 21:44:43 10° ESE night (unlit)
23 Apr - 23:17:36 10° W 23:19:52 15° SW 23:22:06 10° SSW night (unlit)
24 Apr - 09:24:53 10° S 09:27:41 21° SE 09:30:34 10° ENE daylight
24 Apr - 11:03:17 10° W 11:05:50 17° NW 11:08:26 10° N daylight
24 Apr - 21:11:30 10° N 21:14:23 20° NE 21:17:12 10° E night (unlit)
24 Apr - 22:49:57 10° W 22:52:30 17° SW 22:55:01 10° S night (unlit)
25 Apr - 08:57:44 10° S 09:00:20 18° SE 09:02:58 10° E daylight
25 Apr - 10:35:44 10° W 10:38:27 19° NW 10:41:15 10° N daylight
25 Apr - 20:44:18 10° N 20:47:00 18° NE 20:49:39 10° E night (unlit)
25 Apr - 22:22:20 10° WNW 22:25:08 20° SW 22:27:53 10° S night (unlit)
26 Apr - 08:30:38 10° SSE 08:32:57 16° SE 08:35:19 10° E daylight
26 Apr - 10:08:12 10° WSW 10:11:04 21° NW 10:14:01 10° N daylight
26 Apr - 20:17:06 10° N 20:19:36 16° NE 20:22:03 10° E visible
26 Apr - 21:54:44 10° WNW 21:57:46 22° SW 22:00:42 10° S night (unlit)
